Location: Indian Springs
(36.5700°N, 115.6700°W)
Time: 21:23:48
(UTC-08:00)

Amateur Radio Satellites - All Passes

Search period start: 25 February 2017 20:53
Search period end: 26 February 2017 20:53
Location: Indian Springs, 36.5700°N, 115.6700°W

Satellite Date Start Highest point End Downlink Frequencies (MHz)
Time Altitude Azimuth
UNISAT 6 25 Feb 20:57:36 21:01:10 21° 94° (E) 21:04:42 437.425
TIGRISAT 25 Feb 20:57:52 21:01:17 20° 94° (E) 21:04:40 435.000
O/OREOS (USA 219) 25 Feb 20:59:51 21:02:26 15° 99° (E) 21:05:01 437.305
DELFI C3 25 Feb 21:42:32 21:45:02 16° 266° (W) 21:47:33 145.870
RS-15 25 Feb 21:44:57 21:51:47 16° 360° (N) 21:58:35 29.354- 29.394
YUBILEINY 25 Feb 21:46:04 21:54:40 65° 268° (W) 22:03:12 435.215
JUGNU 25 Feb 21:49:11 21:52:20 15° 178° (S) 21:55:29 437.505
SO-50 25 Feb 21:54:06 21:58:43 57° 303° (WNW) 22:03:17 436.795
NO-84 25 Feb 22:01:56 22:03:50 13° 28° (NNE) 22:05:48 435.350 FM
ESTCUBE 1 25 Feb 22:09:26 22:13:50 55° 74° (ENE) 22:18:16 437.505/2401.250
QB50P2 25 Feb 22:12:57 22:14:01 11° 91° (E) 22:15:05 145.880/145.840
PRISM 25 Feb 22:13:37 22:16:34 20° 292° (WNW) 22:19:31 437.425
LO-87 25 Feb 22:13:52 22:17:19 53° 260° (W) 22:20:48 145.935 - 145.965
DX 1 25 Feb 22:25:32 22:26:34 11° 64° (ENE) 22:27:36 434.975-435.025
FO-29 25 Feb 22:30:49 22:38:26 83° 103° (ESE) 22:45:14 435.910
VELOX 1 25 Feb 22:32:48 22:36:39 31° 71° (ENE) 22:40:31 145.980
UNISAT 6 25 Feb 22:33:41 22:37:53 33° 289° (WNW) 22:42:03 437.425
TIGRISAT 25 Feb 22:33:45 22:38:02 36° 288° (WNW) 22:42:15 435.000
SPROUT 25 Feb 22:36:37 22:40:10 26° 70° (ENE) 22:43:44 437.525
O/OREOS (USA 219) 25 Feb 22:37:11 22:41:25 41° 295° (WNW) 22:45:42 437.305
50 SAT 25 Feb 22:40:45 22:43:26 21° 71° (ENE) 22:46:07 437.505
SRMSAT 25 Feb 22:50:36 22:52:48 12° 169° (S) 22:54:59 437.500
DUCHIFAT 1 25 Feb 23:13:40 23:17:46 45° 99° (E) 23:21:50 145.980
AIST 2D 25 Feb 23:14:50 23:18:22 67° 283° (WNW) 23:21:52 435.315
EO-79 25 Feb 23:25:04 23:29:22 77° 101° (E) 23:33:38 145.935-145.965
PCSat 25 Feb 23:25:50 23:28:30 14° 46° (NE) 23:31:09 145.827
NO-84 25 Feb 23:38:02 23:42:11 65° 45° (NE) 23:46:33 435.350 FM
JUGNU 25 Feb 23:38:02 23:40:30 13° 189° (S) 23:43:00 437.505
NANOSAT C BR1 25 Feb 23:41:41 23:45:58 73° 283° (WNW) 23:50:12 145.865
POLYITAN 1 25 Feb 23:42:51 23:47:07 64° 285° (WNW) 23:51:20 437.675
QB50P2 25 Feb 23:45:54 23:50:05 54° 286° (WNW) 23:54:15 145.880/145.840
ESTCUBE 1 25 Feb 23:49:18 23:50:56 12° 268° (W) 23:52:35 437.505/2401.250
DX 1 25 Feb 23:57:55 00:02:10 62° 258° (WSW) 00:06:28 434.975-435.025
RS-15 26 Feb 00:00:14 00:10:30 29° 35° (NE) 00:20:27 29.354- 29.394
BUGSAT 1 26 Feb 00:07:58 00:12:12 66° 102° (ESE) 00:16:24 437.445
UKube-1 26 Feb 00:08:38 00:12:54 66° 258° (WSW) 00:17:11 .
VELOX 1 26 Feb 00:09:53 00:13:07 20° 265° (W) 00:16:21 145.980
SPROUT 26 Feb 00:12:41 00:16:00 22° 265° (W) 00:19:21 437.525
50 SAT 26 Feb 00:13:59 00:16:27 18° 265° (W) 00:18:56 437.505
FO-29 26 Feb 00:17:33 00:22:21 19° 302° (WNW) 00:26:54 435.910
Oscar 19 26 Feb 00:21:12 00:25:19 24° 95° (E) 00:29:24 437.125/150
ITUPSAT 1 26 Feb 00:29:36 00:31:50 13° 63° (ENE) 00:34:05 437.325
BEESAT 26 Feb 00:35:08 00:37:53 16° 65° (ENE) 00:40:40 436.000
SRMSAT 26 Feb 00:37:46 00:41:09 15° 180° (S) 00:44:32 437.500
DUCHIFAT 1 26 Feb 00:50:48 00:53:01 14° 294° (WNW) 00:55:13 145.980
PCSat 26 Feb 01:07:10 01:12:38 90° 295° (WNW) 01:18:03 145.827
Gurwin Techsat 1B 26 Feb 01:11:08 01:16:10 41° 99° (E) 01:21:10 435.225
NO-84 26 Feb 01:17:03 01:19:33 15° 238° (WSW) 01:22:06 435.350 FM
AO-7 26 Feb 01:45:40 01:50:05 15° 91° (E) 01:54:28 .
Oscar 19 26 Feb 02:00:02 02:04:39 35° 290° (WNW) 02:09:15 437.125/150
ITUPSAT 1 26 Feb 02:04:21 02:09:06 62° 259° (W) 02:13:53 437.325
BEESAT 26 Feb 02:10:33 02:15:12 52° 260° (W) 02:19:53 436.000
RS-15 26 Feb 02:12:35 02:24:58 87° 61° (ENE) 02:36:43 29.354- 29.394
MOZHAYETS 4 26 Feb 02:24:26 02:29:03 75° 77° (ENE) 02:33:42
SRMSAT 26 Feb 02:27:07 02:29:31 12° 190° (S) 02:31:56 437.500
ITAMSAT 1 26 Feb 02:35:03 02:40:05 45° 100° (E) 02:45:04 435.822/435.867
KKS-1 26 Feb 02:50:12 02:54:10 34° 71° (ENE) 02:58:10 437.445
Gurwin Techsat 1B 26 Feb 02:51:45 02:55:48 23° 294° (WNW) 02:59:51 435.225
STARS 26 Feb 03:21:59 03:25:53 33° 71° (ENE) 03:29:50 437.465
CUBESAT XI-V 26 Feb 03:26:07 03:30:37 51° 74° (ENE) 03:35:07 437.345
M-CUBED/EXP-1 PRIME 26 Feb 03:33:42 03:36:29 26° 67° (ENE) 03:39:15 437.505
AO-7 26 Feb 03:35:25 03:43:46 88° 108° (ESE) 03:52:04 .
AO-85 26 Feb 03:36:37 03:41:16 81° 301° (WNW) 03:45:34 145.980
ITAMSAT 1 26 Feb 04:15:25 04:19:11 20° 295° (WNW) 04:22:55 435.822/435.867
BEESAT 3 26 Feb 04:17:33 04:19:13 12° 108° (ESE) 04:20:53 437.485
RS-15 26 Feb 04:27:27 04:35:43 22° 261° (W) 04:43:49 29.354- 29.394
KKS-1 26 Feb 04:27:42 04:30:47 19° 266° (W) 04:33:53 437.445
LilacSat-2 26 Feb 04:55:14 04:57:23 14° 93° (E) 04:59:30 437.200
BEESAT 2 26 Feb 04:57:18 04:59:24 14° 109° (ESE) 05:01:31 435.950
STARS 26 Feb 04:59:13 05:02:17 19° 265° (W) 05:05:22 437.465
CUBESAT XI-V 26 Feb 05:05:54 05:08:14 14° 268° (W) 05:10:35 437.345
M-CUBED/EXP-1 PRIME 26 Feb 05:09:36 05:11:01 12° 261° (W) 05:12:27 437.505
DOVE 4 26 Feb 05:28:48 05:33:26 48° 99° (E) 05:38:20 437.250
CUTE-I 26 Feb 05:28:50 05:33:47 36° 98° (E) 05:38:42 437.470
AO-7 26 Feb 05:30:03 05:35:26 20° 306° (NW) 05:40:51 .
ISS 26 Feb 05:37:36 05:38:55 12° 127° (SE) 05:40:13 437.550
KAITUO 1B 26 Feb 05:44:51 05:48:31 49° 99° (E) 05:52:08 145.475/437.950
STRAND 1 26 Feb 05:50:08 05:54:58 44° 72° (ENE) 05:59:50 437.568
XW-2F 26 Feb 05:51:05 05:54:53 75° 101° (ESE) 05:58:39 145.980 - 146.000
BEESAT 3 26 Feb 05:52:38 05:56:22 44° 304° (WNW) 06:00:10 437.485
XW-2D 26 Feb 05:56:18 06:00:08 86° 280° (W) 06:03:55 145.860 - 145.880
Tancredo 1 26 Feb 05:59:33 06:02:07 22° 131° (SE) 06:04:42 437.200
XW-2B 26 Feb 06:01:23 06:05:13 77° 282° (WNW) 06:08:59 145.730 - 145.750
XW-2C 26 Feb 06:10:07 06:13:53 57° 285° (WNW) 06:17:36 145.795 - 145.815
NUDT-PHONESAT 26 Feb 06:18:37 06:22:18 54° 285° (WNW) 06:25:56 437.300
SO-50 26 Feb 06:27:41 06:32:09 62° 58° (ENE) 06:36:34 436.795
LilacSat-2 26 Feb 06:28:18 06:31:44 32° 288° (WNW) 06:35:08 437.200
BEESAT 2 26 Feb 06:33:04 06:36:47 40° 304° (NW) 06:40:35 435.950
SEEDS 26 Feb 06:36:49 06:39:21 16° 93° (E) 06:41:52 437.485
HO-68 26 Feb 07:01:28 07:08:26 53° 101° (E) 07:15:22 435.675
DOVE 4 26 Feb 07:07:43 07:10:47 17° 292° (WNW) 07:13:56 437.250
CUTE-I 26 Feb 07:09:14 07:13:37 26° 293° (WNW) 07:17:58 437.470
O/OREOS (USA 219) 26 Feb 07:10:45 07:14:17 21° 60° (ENE) 07:17:49 437.305
ISS 26 Feb 07:11:46 07:15:00 56° 322° (NW) 07:18:15 437.550
CUTE 1.7 + AOD 2 26 Feb 07:15:39 07:19:53 76° 102° (ESE) 07:24:03 437.475
XW-2A 26 Feb 07:15:55 07:19:19 55° 285° (WNW) 07:22:41 145.665 - 145.685
PRISM 26 Feb 07:25:54 07:28:18 15° 67° (ENE) 07:30:41 437.425
STRAND 1 26 Feb 07:30:41 07:34:18 19° 266° (W) 07:37:56 437.568
Tancredo 1 26 Feb 07:35:19 07:38:16 31° 326° (NW) 07:41:13 437.200
CUBEBUG 2 26 Feb 07:44:18 07:49:04 70° 101° (ESE) 07:53:44 437.445
AO-73 26 Feb 07:50:37 07:54:21 25° 95° (E) 07:58:00 145.935
UNISAT 6 26 Feb 07:55:00 07:57:26 14° 65° (ENE) 07:59:53 437.425
TIGRISAT 26 Feb 07:55:16 07:57:26 13° 64° (ENE) 07:59:37 435.000
Oscar 11 26 Feb 07:56:05 07:59:36 24° 95° (E) 08:03:04 .
AAUSAT CUBESAT 2 26 Feb 07:57:11 08:01:18 71° 101° (E) 08:05:22 437.432
SO-50 26 Feb 08:10:38 08:12:01 11° 253° (WSW) 08:13:25 436.795
SEEDS 26 Feb 08:11:20 08:15:08 35° 288° (WNW) 08:18:54 437.485
UWE-3 26 Feb 08:19:35 08:24:15 78° 284° (WNW) 08:28:49 435.000/436.395/437.385
ZACube-1 26 Feb 08:38:16 08:42:49 83° 285° (WNW) 08:47:16 437.345
FO-29 26 Feb 08:39:19 08:45:28 32° 64° (ENE) 08:52:02 435.910
YUBILEINY 26 Feb 08:48:26 08:55:46 31° 84° (E) 09:03:05 435.215
O/OREOS (USA 219) 26 Feb 08:49:37 08:53:44 33° 256° (WSW) 08:57:50 437.305
HO-68 26 Feb 08:49:56 08:55:43 28° 298° (WNW) 09:01:31 435.675
ISS 26 Feb 08:51:00 08:52:03 11° 339° (NNW) 08:53:06 437.550
PRISM 26 Feb 08:59:29 09:03:16 36° 262° (W) 09:07:02 437.425
DELFI C3 26 Feb 09:20:17 09:24:13 73° 101° (ESE) 09:28:07 145.870
CUBEBUG 2 26 Feb 09:23:25 09:25:00 12° 297° (WNW) 09:26:37 437.445
AO-73 26 Feb 09:26:43 09:30:29 26° 290° (WNW) 09:34:11 145.935
TIGRISAT 26 Feb 09:29:11 09:33:34 55° 260° (W) 09:38:05 435.000
UNISAT 6 26 Feb 09:29:17 09:33:38 50° 261° (W) 09:38:07 437.425
Oscar 11 26 Feb 09:32:05 09:35:37 25° 290° (WNW) 09:39:09 .
LO-87 26 Feb 09:44:38 09:46:27 13° 93° (E) 09:48:16 145.935 - 145.965
AIST 2D 26 Feb 09:47:01 09:50:03 27° 72° (ENE) 09:53:05 435.315
DUCHIFAT 1 26 Feb 10:03:21 10:06:44 24° 69° (ENE) 10:10:08 145.980
ESTCUBE 1 26 Feb 10:05:55 10:08:13 14° 92° (E) 10:10:32 437.505/2401.250
EO-79 26 Feb 10:14:53 10:18:49 39° 73° (ENE) 10:22:47 145.935-145.965
FO-29 26 Feb 10:23:16 10:30:02 50° 262° (W) 10:37:29 435.910
NANOSAT C BR1 26 Feb 10:30:54 10:35:01 57° 75° (ENE) 10:39:11 145.865
POLYITAN 1 26 Feb 10:32:28 10:36:40 66° 75° (ENE) 10:40:54 437.675
QB50P2 26 Feb 10:35:28 10:39:41 78° 77° (ENE) 10:43:57 145.880/145.840
YUBILEINY 26 Feb 10:43:33 10:52:04 52° 282° (WNW) 11:00:37 435.215
BUGSAT 1 26 Feb 10:55:23 10:58:56 31° 71° (ENE) 11:02:34 437.445
LO-87 26 Feb 11:16:46 11:19:57 30° 287° (WNW) 11:23:09 145.935 - 145.965
AIST 2D 26 Feb 11:21:15 11:23:17 15° 267° (W) 11:25:20 435.315
Oscar 19 26 Feb 11:35:39 11:40:00 28° 68° (ENE) 11:44:20 437.125/150
DUCHIFAT 1 26 Feb 11:38:53 11:42:17 24° 264° (W) 11:45:44 145.980
50 SAT 26 Feb 11:40:12 11:43:18 31° 98° (E) 11:46:24 437.505
ESTCUBE 1 26 Feb 11:40:57 11:45:14 46° 287° (WNW) 11:49:30 437.505/2401.250
DX 1 26 Feb 11:48:48 11:52:28 26° 97° (E) 11:56:06 434.975-435.025
EO-79 26 Feb 11:52:23 11:54:44 15° 267° (W) 11:57:06 145.935-145.965
UKube-1 26 Feb 11:58:33 12:02:02 23° 96° (E) 12:05:29 .
SPROUT 26 Feb 11:59:35 12:03:54 72° 101° (E) 12:08:11 437.525
VELOX 1 26 Feb 12:00:45 12:05:10 90° 59° (ENE) 12:09:36 145.980
ISS 26 Feb 12:06:44 12:07:42 11° 20° (NNE) 12:08:40 437.550
AO-85 26 Feb 12:10:24 12:14:03 36° 56° (NE) 12:17:45 145.980
Tancredo 1 26 Feb 12:28:41 12:30:34 14° 25° (NNE) 12:32:27 437.200
Gurwin Techsat 1B 26 Feb 12:29:41 12:34:49 52° 72° (ENE) 12:39:58 435.225
BUGSAT 1 26 Feb 12:31:39 12:34:20 17° 266° (W) 12:37:05 437.445
AO-7 26 Feb 12:42:12 12:47:51 21° 55° (NE) 12:53:29 .
50 SAT 26 Feb 13:14:37 13:16:07 12° 292° (WNW) 13:17:36 437.505
Oscar 19 26 Feb 13:14:41 13:19:11 30° 263° (W) 13:23:42 437.125/150
DX 1 26 Feb 13:25:01 13:28:30 24° 291° (WNW) 13:32:00 434.975-435.025
UKube-1 26 Feb 13:34:23 13:37:59 26° 290° (WNW) 13:41:33 .
ISS 26 Feb 13:41:32 13:44:46 55° 39° (NE) 13:47:59 437.550
ITAMSAT 1 26 Feb 13:50:28 13:55:31 55° 72° (ENE) 14:00:37 435.822/435.867
AO-85 26 Feb 13:51:50 13:54:07 15° 250° (WSW) 13:56:26 145.980
Tancredo 1 26 Feb 14:03:58 14:07:11 78° 225° (SW) 14:10:23 437.200
PCSat 26 Feb 14:05:23 14:08:39 16° 104° (ESE) 14:11:54 145.827
ITUPSAT 1 26 Feb 14:07:22 14:11:53 40° 99° (E) 14:16:21 437.325
BEESAT 3 26 Feb 14:11:31 14:15:22 43° 56° (ENE) 14:19:11 437.485
Gurwin Techsat 1B 26 Feb 14:11:39 14:15:02 17° 267° (W) 14:18:25 435.225
BEESAT 26 Feb 14:12:58 14:17:36 47° 100° (E) 14:22:10 436.000
MOZHAYETS 4 26 Feb 14:22:44 14:26:11 21° 94° (E) 14:29:36
RS-15 26 Feb 14:26:51 14:32:27 15° 96° (E) 14:38:06 29.354- 29.394
AO-7 26 Feb 14:31:11 14:39:35 86° 253° (WSW) 14:47:59 .
BEESAT 2 26 Feb 14:52:43 14:56:40 49° 57° (ENE) 15:00:35 435.950
NO-84 26 Feb 14:56:03 14:58:14 18° 123° (ESE) 15:00:33 435.350 FM
ISS 26 Feb 15:19:31 15:20:51 12° 233° (SW) 15:22:12 437.550
CUBESAT XI-V 26 Feb 15:26:26 15:29:03 15° 93° (E) 15:31:40 437.345
ITAMSAT 1 26 Feb 15:32:13 15:35:17 16° 267° (W) 15:38:22 435.822/435.867
ITUPSAT 1 26 Feb 15:46:00 15:49:23 19° 294° (WNW) 15:52:45 437.325
PCSat 26 Feb 15:46:09 15:51:29 59° 300° (WNW) 15:56:51 145.827
BEESAT 3 26 Feb 15:50:34 15:52:34 13° 251° (WSW) 15:54:34 437.485
BEESAT 26 Feb 15:51:58 15:54:57 17° 295° (WNW) 15:57:55 436.000
MOZHAYETS 4 26 Feb 15:59:16 16:03:22 33° 289° (WNW) 16:07:26
KKS-1 26 Feb 16:19:16 16:23:45 83° 286° (WNW) 16:28:14 437.445
KAITUO 1B 26 Feb 16:23:27 16:25:55 17° 69° (ENE) 16:28:25 145.475/437.950
AO-7 26 Feb 16:29:07 16:33:18 14° 269° (W) 16:37:29 .
XW-2F 26 Feb 16:29:55 16:33:02 24° 71° (ENE) 16:36:10 145.980 - 146.000
RS-15 26 Feb 16:30:52 16:42:38 75° 115° (ESE) 16:54:54 29.354- 29.394
BEESAT 2 26 Feb 16:32:25 16:33:58 12° 252° (WSW) 16:35:31 435.950
DOVE 4 26 Feb 16:32:42 16:36:21 31° 71° (ENE) 16:40:03 437.250
NO-84 26 Feb 16:32:49 16:35:38 29° 322° (NW) 16:38:43 435.350 FM
XW-2D 26 Feb 16:35:11 16:38:33 30° 72° (ENE) 16:41:57 145.860 - 145.880
XW-2B 26 Feb 16:40:09 16:43:37 33° 73° (ENE) 16:47:07 145.730 - 145.750
M-CUBED/EXP-1 PRIME 26 Feb 16:47:12 16:50:49 34° 104° (ESE) 16:54:39 437.505
CUTE-I 26 Feb 16:48:07 16:53:12 47° 71° (ENE) 16:58:19 437.470
XW-2C 26 Feb 16:48:39 16:52:18 43° 74° (ENE) 16:55:59 145.795 - 145.815
STARS 26 Feb 16:49:14 16:53:41 88° 288° (WNW) 16:58:07 437.465
NUDT-PHONESAT 26 Feb 16:55:19 16:58:53 42° 74° (ENE) 17:02:28 437.300
CUBESAT XI-V 26 Feb 17:02:15 17:06:37 45° 287° (WNW) 17:10:58 437.345
LilacSat-2 26 Feb 17:06:51 17:10:44 82° 76° (ENE) 17:14:38 437.200
HO-68 26 Feb 17:27:57 17:34:03 31° 64° (ENE) 17:40:07 435.675
XW-2A 26 Feb 17:45:05 17:48:00 27° 73° (ENE) 17:50:57 145.665 - 145.685
KAITUO 1B 26 Feb 17:56:25 17:59:43 28° 264° (W) 18:03:02 145.475/437.950
STRAND 1 26 Feb 18:04:03 18:07:32 18° 93° (E) 18:11:01 437.568
XW-2F 26 Feb 18:04:18 18:07:07 19° 265° (W) 18:09:57 145.980 - 146.000
CUTE 1.7 + AOD 2 26 Feb 18:05:39 18:09:36 37° 73° (ENE) 18:13:33 437.475
XW-2D 26 Feb 18:10:24 18:12:46 16° 266° (W) 18:15:10 145.860 - 145.880
DOVE 4 26 Feb 18:11:28 18:14:08 17° 267° (W) 18:16:50 437.250
XW-2B 26 Feb 18:15:49 18:17:54 14° 267° (W) 18:19:59 145.730 - 145.750
M-CUBED/EXP-1 PRIME 26 Feb 18:22:30 18:25:02 17° 295° (WNW) 18:27:41 437.505
XW-2C 26 Feb 18:25:47 18:26:42 11° 268° (W) 18:27:37 145.795 - 145.815
CUTE-I 26 Feb 18:29:43 18:33:26 19° 266° (W) 18:37:11 437.470
NUDT-PHONESAT 26 Feb 18:32:10 18:33:00 11° 268° (W) 18:33:50 437.300
CUBEBUG 2 26 Feb 18:39:43 18:43:51 40° 72° (ENE) 18:48:09 437.445
AO-73 26 Feb 18:44:28 18:47:05 15° 66° (ENE) 18:49:43 145.935
AAUSAT CUBESAT 2 26 Feb 18:44:49 18:48:31 32° 73° (ENE) 18:52:15 437.432
RS-15 26 Feb 18:45:32 18:56:16 36° 319° (NW) 19:07:20 29.354- 29.394
Oscar 11 26 Feb 18:49:29 18:51:53 15° 66° (ENE) 18:54:16 .
SEEDS 26 Feb 18:59:39 19:03:53 75° 257° (WSW) 19:08:07 437.485
YUBILEINY 26 Feb 19:03:56 19:06:43 12° 61° (ENE) 19:09:29 435.215
UWE-3 26 Feb 19:13:31 19:17:54 61° 75° (ENE) 19:22:25 435.000/436.395/437.385
HO-68 26 Feb 19:14:37 19:21:27 47° 260° (W) 19:28:19 435.675
XW-2A 26 Feb 19:19:16 19:20:49 13° 267° (W) 19:22:22 145.665 - 145.685
ZACube-1 26 Feb 19:30:58 19:35:19 55° 75° (ENE) 19:39:46 437.345
STRAND 1 26 Feb 19:41:59 19:46:54 46° 288° (WNW) 19:51:48 437.568
CUTE 1.7 + AOD 2 26 Feb 19:42:56 19:45:32 16° 267° (W) 19:48:08 437.475
JUGNU 26 Feb 19:47:12 19:49:01 11° 169° (S) 19:50:48 437.505
DELFI C3 26 Feb 20:03:31 20:06:55 28° 71° (ENE) 20:10:19 145.870
CUBEBUG 2 26 Feb 20:17:54 20:20:38 16° 268° (W) 20:23:27 437.445
AO-73 26 Feb 20:18:37 20:22:52 45° 261° (W) 20:27:14 145.935
AAUSAT CUBESAT 2 26 Feb 20:21:19 20:24:02 17° 266° (W) 20:26:47 437.432
Oscar 11 26 Feb 20:23:26 20:27:36 44° 261° (W) 20:31:47 .
SO-50 26 Feb 20:39:28 20:43:45 36° 114° (ESE) 20:48:01 436.795
PRISM 26 Feb 20:43:00 20:46:41 32° 98° (E) 20:50:21 437.425
